Terminal Aerodrome Forecast
Issued by NWS Wilmington, OH

Current Version | Previous Version | Graphics & Text | Print | Product List | Glossary On
Versions: 1 2 3 4 5 6 7 8 9 10 11 12 13 14 15 16 17 18 19 20 21 22 23 24 25 26
000
FTUS41 KILN 011100
TAFDAY
TAF
KDAY 011136Z 0112/0212 01005KT 1SM BR OVC002
     FM011500 02005KT 3SM BR BKN005
     FM011600 04003KT P6SM BKN015
     FM011700 08005KT P6SM FEW035
     FM012300 11004KT P6SM SKC
     FM020900 13004KT P6SM SCT200=

USA.gov is the U.S. government's official web portal to all federal, state and local government web resources and services.